{"data":{"norad_id":49760,"intl_designator":"2021-115AN","name":"STARLINK-3199","alt_names":[],"object_type":"PAYLOAD","status":"ACTIVE","operator":null,"country":"US","launch_date":"2021-12-02","launch_site_code":"AFETR","launch_vehicle":null,"mission":null,"orbit_class":"UNKNOWN","rcs_meters":null,"size_class":null,"mass_kg":null,"dimensions":null,"purposes":["comms"],"wikipedia_slug":null,"has_3d_model":false,"image_url":null,"decayed_at":null,"tle_current":{"epoch":"2026-05-24T17:53:23.433504Z","epoch_age_seconds":90969,"freshness":"FRESH","line1":"1 49760U 21115AN  26144.74541011  .00000219  00000+0  31872-4 0  9992","line2":"2 49760  53.2142 157.6955 0001218  82.1567 277.9564 15.08836324247164","mean_motion":15.08836324,"eccentricity":0.0001218,"inclination_deg":53.2142,"raan_deg":157.6955,"arg_perigee_deg":82.1567,"mean_anomaly_deg":277.9564,"bstar":3.1872e-5,"rev_number":24716,"period_min":95.437787193676,"perigee_km":538.91202584838,"apogee_km":540.59722424824,"semimajor_km":6917.8916250483,"source":"CELESTRAK","updated_at":"2026-05-25T13:38:16.839192Z"}}}